Total_Precipitation_Accumulation
0.87 0.89 0.84 0.86 0.78 0.77 0.88 0.96 0.99 1.00 0.91 0.77 0.72 0.71 0.76 0.70 0.67 0.76 0.99 1.30 1.74 2.10 2.19 2.00 1.80 1.69 1.64 1.64 1.86 2.08 2.35 2.47 2.30 2.15 1.94 1.83 2.01 2.15 1.80 1.66 1.64 1.65 1.77
0.92 0.96 0.91 0.91 0.88 0.81 0.86 1.06 1.02 1.04 1.02 0.94 0.78 0.76 0.78 0.73 0.70 0.73 0.85 1.12 1.36 1.62 1.97 2.22 2.06 1.86 1.68 1.61 1.67 1.86 2.23 2.32 2.06 1.96 1.93 1.86 2.06 2.13 1.83 1.66 1.55 1.45 1.61
0.87 0.91 0.91 0.88 0.88 0.90 0.93 1.01 1.02 1.07 0.99 0.92 0.88 0.82 0.78 0.74 0.65 0.71 0.73 0.85 0.88 1.09 1.45 1.81 2.03 1.99 1.90 1.84 1.80 1.94 2.22 2.17 1.92 1.91 1.98 1.92 1.89 1.96 1.90 1.75 1.60 1.46 1.50
0.93 0.92 0.95 0.97 1.01 1.05 1.04 1.08 1.13 1.12 1.07 1.07 1.05 1.02 0.84 0.83 0.73 0.73 0.72 0.75 0.82 0.80 0.96 1.14 1.43 1.68 1.90 2.03 2.16 2.33 2.23 2.04 1.85 1.84 1.93 1.83 1.74 1.84 1.89 1.81 1.59 1.46 1.43
0.98 1.07 1.10 1.17 1.14 1.17 1.21 1.18 1.21 1.12 1.13 1.16 1.10 1.08 0.96 0.93 0.87 0.74 0.80 0.82 0.84 0.79 0.82 0.74 0.81 0.95 1.25 1.65 2.18 2.47 2.17 2.03 1.93 1.78 1.75 1.71 1.74 1.88 1.91 1.71 1.54 1.41 1.38
1.28 1.42 1.50 1.44 1.43 1.45 1.46 1.42 1.49 1.38 1.22 1.25 1.15 1.11 1.00 0.89 0.93 0.90 0.87 0.86 0.91 0.88 0.81 0.71 0.68 0.58 0.70 1.08 1.72 2.16 2.12 2.06 1.95 1.87 1.76 1.71 1.79 1.90 1.88 1.73 1.59 1.56 1.50
1.65 1.78 1.71 1.79 1.83 1.71 1.72 1.78 1.84 1.79 1.57 1.43 1.49 1.39 1.11 0.86 0.92 0.90 0.86 0.89 0.95 1.05 1.08 0.95 0.81 0.72 0.68 0.77 1.16 1.67 2.03 2.08 2.11 1.97 1.86 1.83 1.80 1.82 1.84 1.81 1.78 1.73 1.67
1.88 1.92 2.01 2.10 2.15 2.14 2.09 1.99 2.09 2.19 1.94 1.70 1.82 2.11 1.71 1.30 0.94 0.75 0.82 0.86 0.96 1.19 1.27 1.09 0.90 0.82 0.80 0.88 0.80 1.07 1.50 1.92 2.11 2.11 2.02 1.96 1.96 1.99 2.01 1.88 1.76 1.74 1.74
2.11 2.14 2.19 2.27 2.30 2.16 2.16 2.25 2.37 2.72 2.53 2.16 1.95 2.20 2.01 1.68 1.38 0.96 0.86 0.91 0.99 1.16 1.29 1.31 1.19 1.12 1.02 1.04 1.00 0.82 1.00 1.42 1.81 2.12 2.20 2.19 2.08 2.28 2.48 2.24 1.87 1.69 1.58
2.05 2.16 2.17 2.17 2.16 2.10 2.18 2.25 2.30 2.69 2.88 2.60 2.26 1.89 1.66 1.63 1.69 1.40 1.03 0.98 1.06 1.07 1.18 1.27 1.22 1.28 1.26 1.26 1.24 0.98 0.91 1.13 1.45 1.92 2.31 2.62 2.44 2.25 2.28 2.35 2.14 1.80 1.53
1.91 1.94 1.96 2.06 2.10 2.14 2.20 2.36 2.49 2.73 2.76 2.75 2.57 2.37 2.14 1.84 1.49 1.54 1.47 1.21 1.17 1.08 1.17 1.30 1.35 1.42 1.44 1.47 1.59 1.31 1.02 0.92 1.11 1.54 2.09 2.61 2.75 2.49 2.28 2.23 2.13 1.97 1.67
1.89 1.83 1.80 1.87 2.00 2.16 2.21 2.31 2.45 2.69 2.80 2.89 2.80 2.53 2.44 2.28 1.97 1.84 1.58 1.43 1.43 1.22 1.19 1.24 1.28 1.42 1.56 1.64 1.59 1.70 1.36 0.96 0.86 1.14 1.50 2.01 2.57 2.75 2.64 2.50 2.33 2.25 2.05
1.62 1.66 1.74 1.82 1.95 2.06 2.13 2.25 2.40 2.45 2.56 2.80 2.81 2.63 2.43 2.23 2.21 2.08 1.96 1.63 1.46 1.28 1.27 1.27 1.23 1.29 1.31 1.58 1.71 1.78 1.45 1.11 0.84 0.85 1.04 1.28 1.67 2.18 2.56 2.59 2.55 2.63 2.61
1.54 1.49 1.53 1.61 1.82 2.01 2.09 2.19 2.21 2.18 2.23 2.42 2.42 2.48 2.46 2.19 2.13 2.02 2.00 2.07 1.79 1.59 1.43 1.25 1.13 1.18 1.23 1.43 1.73 1.81 1.37 1.19 0.96 0.83 0.87 1.07 1.17 1.30 1.66 2.20 2.51 2.66 2.86
1.34 1.30 1.33 1.36 1.47 1.68 1.93 2.09 2.04 1.95 1.91 2.07 2.14 2.24 2.36 2.39 2.29 2.18 2.14 2.19 2.13 1.88 1.68 1.46 1.23 1.12 1.19 1.31 1.71 1.64 1.43 1.27 1.16 0.98 0.89 0.95 0.95 1.00 1.11 1.41 1.72 1.87 2.06
1.12 1.12 1.12 1.19 1.33 1.45 1.64 1.87 1.96 1.89 1.87 1.93 2.04 2.16 2.29 2.39 2.43 2.23 2.19 2.16 2.01 1.92 1.77 1.46 1.24 1.15 1.22 1.21 1.57 1.58 1.53 1.52 1.30 1.14 1.05 1.02 1.02 0.95 0.96 1.08 1.18 1.21 1.18
0.91 0.94 1.11 1.18 1.24 1.32 1.51 1.77 1.95 1.96 1.89 1.88 1.85 1.93 2.10 2.18 2.40 2.35 2.26 2.15 2.03 1.86 1.73 1.56 1.36 1.21 1.26 1.31 1.42 1.50 1.50 1.40 1.23 1.19 1.06 1.02 1.00 0.99 0.96 1.01 1.13 1.07 0.97
0.66 0.78 0.92 0.97 1.02 1.06 1.24 1.53 1.73 1.78 1.76 1.67 1.64 1.76 1.98 2.14 2.35 2.42 2.37 2.22 2.14 2.01 1.90 1.83 1.65 1.45 1.33 1.37 1.51 1.60 1.56 1.48 1.40 1.40 1.25 1.13 1.05 0.99 0.98 0.98 1.04 1.11 1.06
0.68 0.80 0.88 0.94 0.96 1.02 1.06 1.16 1.32 1.45 1.44 1.39 1.41 1.48 1.52 1.72 2.01 2.17 2.18 2.19 2.23 2.22 2.19 2.04 1.84 1.71 1.56 1.45 1.55 1.61 1.58 1.62 1.48 1.47 1.45 1.36 1.29 1.20 1.10 1.05 1.03 1.05 1.09
0.64 0.74 0.80 0.87 0.94 0.99 0.99 1.00 1.02 1.09 1.11 1.18 1.24 1.27 1.31 1.37 1.59 1.76 1.84 2.02 2.25 2.28 2.31 2.23 2.00 1.84 1.70 1.58 1.65 1.78 1.83 1.80 1.64 1.43 1.41 1.35 1.39 1.34 1.23 1.07 0.99 0.99 1.03
0.56 0.64 0.71 0.73 0.78 0.87 0.96 0.98 0.85 0.81 0.91 1.03 1.04 1.00 1.03 1.11 1.24 1.34 1.40 1.75 2.09 2.28 2.28 2.23 2.08 1.97 1.73 1.61 1.50 1.53 1.73 1.97 1.94 1.84 1.71 1.45 1.39 1.30 1.23 1.18 1.06 0.99 1.00
0.53 0.58 0.56 0.60 0.70 0.74 0.89 0.88 0.72 0.70 0.76 0.85 0.94 0.92 0.82 0.80 0.85 0.93 1.01 1.18 1.46 1.70 1.99 2.17 2.09 1.89 1.67 1.58 1.55 1.59 1.63 1.77 1.94 1.82 1.83 1.81 1.71 1.64 1.53 1.38 1.36 1.25 1.15
0.49 0.51 0.49 0.50 0.55 0.69 0.73 0.60 0.59 0.62 0.70 0.76 0.81 0.87 0.79 0.68 0.75 0.81 0.91 0.98 0.99 1.07 1.36 1.71 1.83 1.76 1.82 1.71 1.68 1.62 1.60 1.69 1.75 1.72 1.86 1.90 1.84 1.79 1.71 1.69 1.77 1.59 1.41
0.56 0.55 0.56 0.55 0.54 0.60 0.59 0.49 0.52 0.55 0.61 0.66 0.75 0.84 0.89 0.81 0.81 0.91 0.92 0.95 0.91 0.86 1.07 1.09 1.26 1.54 1.71 1.80 1.77 1.85 2.02 1.99 1.85 1.72 1.67 1.72 1.63 1.61 1.63 1.64 1.75 1.68 1.55
0.54 0.57 0.61 0.61 0.55 0.52 0.54 0.47 0.48 0.54 0.60 0.64 0.66 0.73 0.81 0.79 0.92 1.01 1.01 1.14 1.11 0.99 1.12 1.19 1.24 1.28 1.39 1.54 1.65 1.72 1.81 1.88 1.86 1.76 1.56 1.43 1.37 1.37 1.42 1.43 1.45 1.53 1.52
0.33 0.43 0.46 0.48 0.52 0.51 0.63 0.52 0.52 0.55 0.63 0.73 0.75 0.72 0.86 0.87 0.94 0.93 0.91 1.14 1.16 1.03 0.96 1.03 1.05 1.03 0.98 1.08 1.29 1.45 1.65 1.75 1.73 1.64 1.39 1.25 1.23 1.26 1.25 1.11 1.02 1.07 1.08